Regional Weather Roundup
Issued by NWS

Home | Current Version | Previous Version | Text Only | Print | Product List | Glossary On
Versions: 1 2 3 4 5 6 7 8 9 10 11 12 13 14 15 16 17 18 19 20 21 22 23 24 25 26 27 28 29 30 31 32 33 34 35 36 37 38 39 40 41 42 43 44 45 46 47 48 49 50
000
ASUS43 KMKX 011859
RWRWI

WISCONSIN REGIONAL WEATHER ROUNDUP
NATIONAL WEATHER SERVICE MILWAUKEE/SULLIVAN WI
200 PM CDT WED APR 01 2015

NOTE: "FAIR" INDICATES FEW OR NO CLOUDS BELOW 12,000 FEET WITH NO
SIGNIFICANT WEATHER AND/OR OBSTRUCTIONS TO VISIBILITY.

WIZ001-002-006>008-014>016-023>028-012000-
NORTHWEST WISCONSIN

CITY           SKY/WX    TMP DP  RH WIND       PRES   REMARKS
SUPERIOR ARPT  CLOUDY    35  32  88 E15G23    29.64F WCI  26
ASHLAND        PTSUNNY   65  34  31 S16G24    29.63F
HAYWARD        CLOUDY    61  33  35 S16       29.63F
SIREN          CLOUDY    65  33  31 S16G28    29.59F
CUMBERLAND     CLOUDY    63  34  34 S20G26    29.66F
RICE LAKE      CLOUDY    65  32  28 S18G26    29.69F
CHETEK         CLOUDY    65  36  33 SE18G25   29.70F
LADYSMITH      PTSUNNY   62  36  38 S17G23    29.76F
EAU CLAIRE     NOT AVBL
MENOMONIE      PTSUNNY   73  34  23 S22       29.69F
NEW RICHMOND   PTSUNNY   73  36  25 S30G37    29.62F
OSCEOLA        PTSUNNY   71  36  27 S26G40    29.62F
$$

WIZ003>005-009-010-017-018-012000-
NORTH CENTRAL WISCONSIN

CITY           SKY/WX    TMP DP  RH WIND       PRES   REMARKS
MANITOWISH WTR PTSUNNY   54  32  44 S20       29.76F
ARBOR VITAE    PTSUNNY   55  33  44 SE17G25   29.78F
WOODRUFF       PTSUNNY   55  33  44 SE17G25   29.78F
RHINELANDER    MOSUNNY   57  31  37 S18G26    29.80F
EAGLE RIVER    PTSUNNY   54  28  37 S14G23    29.79F
LAND O LAKES   PTSUNNY   54  30  40 SE14G23   29.79F
PHILLIPS       CLOUDY    58  35  42 S12       29.75F
TOMAHAWK       MOSUNNY   57  33  40 SE6G17    29.80F
MEDFORD        MOSUNNY   58  38  45 SE14G21   29.79F
MERRILL        MOSUNNY   59  35  40 SE12G21   29.81F
$$

WIZ029-030-035-036-043>047-012000-
CENTRAL WISCONSIN

CITY           SKY/WX    TMP DP  RH WIND       PRES   REMARKS
WAUSAU         MOSUNNY   61  34  36 S13G28    29.80F
MOSINEE        SUNNY     59  36  41 SE17G24   29.83F
MARSHFIELD     MOSUNNY   67  35  30 S20       29.78F
STEVENS POINT  SUNNY     61  33  34 SE16G24   29.84F
WAUPACA        SUNNY     63  33  33 SE14G21   29.89F
WAUTOMA        NOT AVBL
WISC RAPIDS    SUNNY     68  30  24 S14G26    29.82F
CAMP DOUGLAS   NOT AVBL
$$

WIZ011>013-019>022-031-037>040-048>050-012000-
NORTHEAST WISCONSIN

CITY           SKY/WX    TMP DP  RH WIND       PRES   REMARKS
ANTIGO         MOSUNNY   51  35  53 SE22G28   29.85F
SHAWANO        MOSUNNY   57  37  46 SE13      29.91F
OCONTO         MOSUNNY   48  33  57 SE12      29.94F
STURGEON BAY   PTSUNNY   45  34  65 SE14      29.98F
GREEN BAY      MOSUNNY   56  38  50 SE16      29.92F
MANITOWOC      NOT AVBL
APPLETON       MOSUNNY   57  34  41 SE16        N/A
CLINTONVILLE   SUNNY     55  36  47 SE12G17   29.90F
OSHKOSH        SUNNY     63  36  36 SE16G23   29.89F
$$

WIZ032>034-041-042-053>061-012000-
SOUTHWEST WISCONSIN

CITY           SKY/WX    TMP DP  RH WIND       PRES   REMARKS
LA CROSSE      SUNNY     76  35  22 S23G29    29.73F
SPARTA         MOSUNNY   72  32  22 S15G23    29.78F
VIROQUA        SUNNY     71  36  27 S20G26    29.80F
BOSCOBEL       SUNNY     78  34  20 S15G24    29.80F
PRAIRIE DU CHI SUNNY     76  29  17 S14G25    29.80F
PLATTEVILLE    SUNNY     74  36  24 S22G29    29.86F
$$

WIZ056-057-062-063-064-067-068-012000-
SOUTH CENTRAL WISCONSIN

CITY           SKY/WX    TMP DP  RH WIND       PRES   REMARKS
REEDSBURG      SUNNY     70  37  30 S14G23    29.85F
BARABOO/DELLS  SUNNY     69  34  27 S16G24    29.86F
LONE ROCK      NOT AVBL
MINERAL POINT  SUNNY     73  32  21 S16G23    29.87F
MADISON        MOSUNNY   71  35  26 S15G23    29.87F
MIDDLETON      SUNNY     71  31  22 S18       29.88F
WATERTOWN      SUNNY     69  37  31 S12G18    29.90F
MONROE         SUNNY     70  37  30 S17G23    29.90F
JANESVILLE     SUNNY     73  34  23 SE14G20   29.90F
$$

WIZ051-052-058>065-066-070>072-012000-
SOUTHEAST WISCONSIN

CITY           SKY/WX    TMP DP  RH WIND       PRES   REMARKS
MILWAUKEE      MOSUNNY   53  35  50 SE20      29.97F
WAUKESHA       SUNNY     64  34  32 SE12G18   29.94F
MILWAUKEE/TIMM SUNNY     54  34  47 SE14      29.97F
RACINE         SUNNY     51  36  56 SE15      29.99F
BURLINGTON     SUNNY     68  35  29 S7        29.93F
KENOSHA        SUNNY     61  40  45 SE14      29.96F
FOND DU LAC    SUNNY     65  36  34 SE15      29.89F
SHEBOYGAN      SUNNY     51  34  52 SE16G22   29.96F
WEST BEND      SUNNY     55  32  41 E10       29.95F
JUNEAU         SUNNY     67  37  33 S17G24    29.92F
$$

LSZ147-162-012000-
LAKE SUPERIOR

STATION/POSITION TIME  TEMP    WIND        PRES    WAVE
                       AIR SEA DIR/SP/G            HT/PER
                 (UTC) (F)     (DEG/KT/KT) (MB)    (FT/S)
DEVILS ISLAND    1800   34      60/ 17/ 19 1006.8F
PORT WING        1812   34      30/ 21/ 26 1004.1F
SAXON HARBOR     1821   61     170/  8/ 24 1004.4F
$$

LMZ867-665-643>646-012000-
LAKE MICHIGAN

STATION/POSITION TIME  TEMP    WIND        PRES    WAVE
                       AIR SEA DIR/SP/G            HT/PER
                 (UTC) (F)     (DEG/KT/KT) (MB)    (FT/S)
NORTHPORT PIER   1803   35     130/  8/ 13 1016.9F
SISTER BAY       1817   50     180/ 10/ 16   N/A
KEWAUNEE LAKESHO 1800   36     160/  9/ 11 1015.6F
SHEBOYGAN LAKESH 1800   36     150/  7/  8 1016.9F
PORT WASHINGTON  1800   40     100/  3/  4 1016.9F
MILWAUKEE LAKESH 1800   38      80/  6/  6   N/A
KENOSHA   LAKESH 1800   40     170/  8/ 10 1015.9F
$$

TC  - TEMPERATURE IN CELSIUS
VSB - VISIBILITY IN STATUTE MILES
WCI - WIND CHILL INDEX
HX  - HEAT INDEX



USA.gov is the U.S. government's official web portal to all federal, state and local government web resources and services.